• In Italy
  • List of Countries
  • For 7 days
  • Water Temperature
  • Satellite Maps
  • Weather Map
  • Weather Widgets
  • user-avatar
    Login

    Hourly Weather Jewłach

    Today, 22 October, Sunday

    Time Temperature Precipitation Wind Pressure Humidity
    00:00 +18°C° 0 mm 1 mps 760 mmHg 61%
    01:00 +18°C° 0 mm 1 mps 759 mmHg 59%
    02:00 +18°C° 0 mm 1 mps 759 mmHg 58%
    03:00 +16°C° 0 mm 1 mps 759 mmHg 57%
    04:00 +16°C° 0 mm 2 mps 759 mmHg 56%
    05:00 +16°C° 0 mm 2 mps 759 mmHg 54%
    06:00 +16°C° 0 mm 2 mps 759 mmHg 53%
    07:00 +17°C° 0 mm 3 mps 758 mmHg 47%
    08:00 +19°C° 0 mm 3 mps 758 mmHg 42%
    09:00 +20°C° 0 mm 3 mps 758 mmHg 36%
    10:00 +21°C° 0 mm 4 mps 757 mmHg 34%
    11:00 +22°C° 0 mm 4 mps 757 mmHg 32%
    12:00 +23°C° 0 mm 4 mps 756 mmHg 30%
    13:00 +25°C° 0 mm 4 mps 756 mmHg 29%
    14:00 +25°C° 0 mm 4 mps 756 mmHg 29%
    15:00 +25°C° 0 mm 4 mps 755 mmHg 28%
    16:00 +22°C° 0 mm 4 mps 756 mmHg 31%
    17:00 +21°C° 0 mm 3 mps 756 mmHg 33%
    18:00 +20°C° 0 mm 3 mps 756 mmHg 35%
    19:00 +19°C° 0 mm 3 mps 756 mmHg 35%
    20:00 +19°C° 0 mm 3 mps 756 mmHg 36%
    21:00 +18°C° 0 mm 3 mps 756 mmHg 36%
    22:00 +18°C° 0 mm 4 mps 756 mmHg 35%
    23:00 +18°C° 0 mm 4 mps 756 mmHg 34%

    Tomorrow, 23 October, Monday

    Time Temperature Precipitation Wind Pressure Humidity
    00:00 +17°C° 0 mm 5 mps 756 mmHg 33%
    01:00 +17°C° 0 mm 5 mps 756 mmHg 33%
    02:00 +16°C° 0 mm 5 mps 757 mmHg 33%
    03:00 +16°C° 0 mm 6 mps 757 mmHg 33%
    04:00 +16°C° 0 mm 6 mps 757 mmHg 35%
    05:00 +16°C° 0 mm 6 mps 758 mmHg 37%
    06:00 +15°C° 0 mm 6 mps 758 mmHg 38%
    07:00 +17°C° 0 mm 6 mps 758 mmHg 37%
    08:00 +19°C° 0 mm 6 mps 759 mmHg 36%
    09:00 +20°C° 0 mm 6 mps 759 mmHg 34%
    10:00 +21°C° 0 mm 6 mps 759 mmHg 34%
    11:00 +22°C° 0 mm 6 mps 759 mmHg 33%
    12:00 +23°C° 0 mm 5 mps 759 mmHg 32%
    13:00 +23°C° 0 mm 4 mps 760 mmHg 32%
    14:00 +25°C° 0 mm 3 mps 760 mmHg 31%
    15:00 +25°C° 0 mm 2 mps 760 mmHg 31%
    16:00 +22°C° 0 mm 3 mps 761 mmHg 34%
    17:00 +21°C° 0 mm 3 mps 762 mmHg 38%
    18:00 +19°C° 0 mm 3 mps 762 mmHg 42%
    19:00 +18°C° 0 mm 4 mps 763 mmHg 51%
    20:00 +16°C° 0 mm 5 mps 763 mmHg 59%
    21:00 +15°C° 0 mm 5 mps 764 mmHg 68%
    22:00 +15°C° 0 mm 5 mps 764 mmHg 68%
    23:00 +15°C° 0 mm 4 mps 764 mmHg 67%

    Day after tomorrow, 24 October, Tuesday

    Time Temperature Precipitation Wind Pressure Humidity
    00:00 +15°C° 0 mm 4 mps 764 mmHg 67%
    01:00 +14°C° 0 mm 3 mps 764 mmHg 67%
    02:00 +14°C° 0 mm 3 mps 764 mmHg 68%
    03:00 +15°C° 0 mm 2 mps 764 mmHg 68%
    04:00 +14°C° 0 mm 2 mps 764 mmHg 70%
    05:00 +14°C° 0 mm 1 mps 764 mmHg 72%
    06:00 +14°C° 0 mm 1 mps 764 mmHg 74%
    07:00 +14°C° 0 mm 1 mps 764 mmHg 71%
    08:00 +15°C° 0 mm 1 mps 764 mmHg 68%
    09:00 +16°C° 0 mm 1 mps 764 mmHg 65%
    10:00 +18°C° 0 mm 1 mps 764 mmHg 63%
    11:00 +19°C° 0 mm 1 mps 763 mmHg 60%
    12:00 +19°C° 0 mm 1 mps 763 mmHg 57%
    13:00 +20°C° 0 mm 1 mps 763 mmHg 55%
    14:00 +20°C° 0 mm 1 mps 762 mmHg 54%
    15:00 +21°C° 0 mm 1 mps 762 mmHg 52%
    16:00 +20°C° 0 mm 1 mps 763 mmHg 57%
    17:00 +19°C° 0 mm 1 mps 763 mmHg 61%
    18:00 +18°C° 0 mm 1 mps 764 mmHg 65%
    19:00 +17°C° 0 mm 2 mps 764 mmHg 67%
    20:00 +16°C° 0 mm 2 mps 764 mmHg 70%
    21:00 +16°C° 0 mm 2 mps 765 mmHg 72%
    22:00 +15°C° 0 mm 2 mps 765 mmHg 75%
    23:00 +15°C° 0 mm 2 mps 765 mmHg 78%

    25 October, Wednesday

    Time Temperature Precipitation Wind Pressure Humidity
    00:00 +15°C° 0 mm 1 mps 765 mmHg 82%
    01:00 +14°C° 0 mm 1 mps 765 mmHg 83%
    02:00 +14°C° 0 mm 1 mps 765 mmHg 84%
    03:00 +13°C° 0 mm 0 mps 765 mmHg 85%
    04:00 +14°C° 0 mm 1 mps 765 mmHg 85%
    05:00 +14°C° 0 mm 1 mps 765 mmHg 85%
    06:00 +14°C° 0 mm 1 mps 765 mmHg 85%
    07:00 +15°C° 0 mm 1 mps 765 mmHg 82%
    08:00 +16°C° 0 mm 1 mps 765 mmHg 78%
    09:00 +18°C° 0 mm 1 mps 765 mmHg 74%
    10:00 +19°C° 0 mm 1 mps 765 mmHg 69%
    11:00 +20°C° 0 mm 1 mps 765 mmHg 64%
    12:00 +21°C° 0 mm 1 mps 764 mmHg 59%
    13:00 +21°C° 0 mm 1 mps 764 mmHg 57%
    14:00 +22°C° 0 mm 1 mps 764 mmHg 54%
    15:00 +21°C° 0 mm 2 mps 763 mmHg 52%
    16:00 +21°C° 0 mm 1 mps 764 mmHg 56%
    17:00 +20°C° 0 mm 1 mps 764 mmHg 60%
    18:00 +19°C° 0 mm 1 mps 764 mmHg 65%
    19:00 +19°C° 0 mm 1 mps 764 mmHg 66%
    20:00 +18°C° 0 mm 1 mps 764 mmHg 67%
    21:00 +17°C° 0 mm 2 mps 765 mmHg 68%
    22:00 +18°C° 0 mm 1 mps 764 mmHg 70%
    23:00 +16°C° 0 mm 1 mps 764 mmHg 71%

    26 October, Thursday

    Time Temperature Precipitation Wind Pressure Humidity
    00:00 +16°C° 0 mm 1 mps 764 mmHg 72%
    01:00 +16°C° 0 mm 1 mps 763 mmHg 73%
    02:00 +16°C° 0 mm 1 mps 763 mmHg 74%
    03:00 +15°C° 0 mm 2 mps 763 mmHg 74%
    04:00 +15°C° 0 mm 2 mps 762 mmHg 74%
    05:00 +15°C° 0 mm 2 mps 762 mmHg 73%
    06:00 +15°C° 0 mm 2 mps 762 mmHg 73%
    07:00 +17°C° 0 mm 3 mps 761 mmHg 65%
    08:00 +18°C° 0 mm 3 mps 761 mmHg 56%
    09:00 +20°C° 0 mm 4 mps 760 mmHg 48%
    10:00 +22°C° 0 mm 4 mps 760 mmHg 41%
    11:00 +23°C° 0 mm 5 mps 759 mmHg 34%
    12:00 +26°C° 0 mm 5 mps 758 mmHg 27%
    13:00 +27°C° 0 mm 6 mps 758 mmHg 26%
    14:00 +27°C° 0 mm 6 mps 758 mmHg 24%
    15:00 +27°C° 0 mm 7 mps 758 mmHg 23%
    16:00 +26°C° 0 mm 6 mps 758 mmHg 26%
    17:00 +24°C° 0 mm 6 mps 759 mmHg 28%
    18:00 +22°C° 0 mm 6 mps 760 mmHg 31%
    19:00 +22°C° 0 mm 6 mps 760 mmHg 31%
    20:00 +21°C° 0 mm 6 mps 760 mmHg 32%
    21:00 +21°C° 0 mm 6 mps 761 mmHg 33%
    22:00 +20°C° 0 mm 5 mps 761 mmHg 36%
    23:00 +20°C° 0 mm 4 mps 761 mmHg 39%

    27 October, Friday

    Time Temperature Precipitation Wind Pressure Humidity
    00:00 +19°C° 0 mm 4 mps 761 mmHg 42%
    01:00 +19°C° 0 mm 3 mps 762 mmHg 45%
    02:00 +18°C° 0 mm 3 mps 762 mmHg 48%
    03:00 +17°C° 0 mm 2 mps 762 mmHg 51%
    04:00 +17°C° 0 mm 2 mps 762 mmHg 53%
    05:00 +16°C° 0 mm 2 mps 763 mmHg 55%
    06:00 +16°C° 0 mm 2 mps 763 mmHg 57%
    07:00 +17°C° 0 mm 2 mps 763 mmHg 57%
    08:00 +17°C° 0 mm 3 mps 763 mmHg 57%
    09:00 +18°C° 0 mm 3 mps 763 mmHg 57%
    10:00 +19°C° 0 mm 3 mps 763 mmHg 55%
    11:00 +20°C° 0 mm 3 mps 763 mmHg 54%
    12:00 +21°C° 0 mm 3 mps 762 mmHg 52%
    13:00 +21°C° 0 mm 3 mps 762 mmHg 52%
    14:00 +21°C° 0 mm 2 mps 762 mmHg 51%
    15:00 +21°C° 0 mm 2 mps 761 mmHg 51%
    16:00 +20°C° 0 mm 2 mps 762 mmHg 56%
    17:00 +19°C° 0 mm 2 mps 762 mmHg 60%
    18:00 +18°C° 0 mm 2 mps 762 mmHg 65%
    19:00 +17°C° 0 mm 2 mps 762 mmHg 68%
    20:00 +17°C° 0 mm 2 mps 762 mmHg 70%
    21:00 +16°C° 0 mm 3 mps 762 mmHg 73%
    22:00 +16°C° 0 mm 2 mps 762 mmHg 75%
    23:00 +16°C° 0 mm 2 mps 762 mmHg 77%
    Show more